[[{"header":{"parameterUnit":"m.s-1","parameterCategory":1,"la1":30.2991,"la2":30.254,"lo1":-89.0895,"lo2":-89.0444,"dy":0.0017,"dx":0.0017,"nx":28,"ny":28,"refTime":"2025-07-19T21:00:00:Z","depth":0,"parameterNumber":2,"parameterNumberName":"U-component_of_WINDS"},"data":[0,0,0,0,0,0,0,0,0,0,0,0,0,0,0,0,0,0,0,0,0,0,0,0,0,0,0,0,0,0,0,0,0,0,0,0,0,0,0,0,0,0,0,0,0,0,0,0,0,0,0,0,0,0,0,0,0,0,0.1658,0.166,0,0.1804,0.1806,0.1807,0.1881,0.1881,0.1882,0.1882,0.2032,0.2036,0.204,0,0,0,0,0,0,0,0,0,0,0,0,0,0.1443,0.1446,0.1658,0.166,0.1662,0.1804,0.1806,0.1808,0.1881,0.1882,0.1882,0.1882,0.2031,0.2035,0.204,0,0,0,0,0,0,0,0,0,0,0,0,0,0.1557,0.1447,0.1658,0.1715,0.1722,0.1803,0.1806,0.1808,0.1881,0.1882,0.1882,0.1882,0.2029,0.2035,0.2041,0.2076,0,0,0.2059,0.2061,0,0,0,0,0,0,0,0,0.1551,0.1565,0.1705,0.1712,0.1719,0.1825,0.1785,0.1898,0.1881,0.1821,0.1882,0.1882,0.1963,0.1974,0.2002,0.2083,0.2089,0.2059,0.2063,0.2066,0.2067,0,0,0,0,0,0,0,0.1543,0.1559,0.1716,0.1707,0.1716,0.1734,0.175,0.1807,0.189,0.1826,0.1832,0.1848,0.1967,0.1996,0.2006,0.2092,0.2059,0.2064,0.2068,0.207,0.2209,0.2209,0,0,0,0,0,0,0.1525,0.1552,0.1711,0.172,0.1633,0.1738,0.1756,0.1791,0.1889,0.1904,0.1848,0.1851,0.1986,0.1999,0.2011,0.2059,0.2065,0.2071,0.2074,0.2209,0.2209,0.2209,0,0,0,0,0,0,0.152,0.1539,0.1705,0.1638,0.166,0.1742,0.178,0.1794,0.1823,0.1906,0.1921,0.1862,0.1986,0.2003,0.2059,0.2065,0.2074,0.2079,0.2209,0.2209,0.2209,0.2154,0,0,0,0,0,0,0.1514,0.1537,0.1551,0.1637,0.1664,0.175,0.178,0.1796,0.1832,0.1838,0.1923,0.1937,0.1987,0.205,0.2065,0.2073,0.2084,0.2208,0.2209,0.2209,0.2156,0.2152,0.2149,0,0,0,0,0,0.1506,0.153,0.1551,0.157,0.1683,0.1751,0.1766,0.1823,0.1833,0.1848,0.1901,0.1935,0.2062,0.2055,0.2073,0.2083,0.2208,0.2209,0.2209,0.2157,0.2153,0.2149,0,0,0,0,0,0,0.1442,0.1542,0.1567,0.162,0.1676,0.1763,0.1784,0.1816,0.1871,0.1874,0.1943,0.1961,0.2011,0.2053,0.2043,0.2122,0.2138,0.2142,0.2093,0.209,0.2087,0.2076,0.2089,0,0,0,0,0,0.1434,0.148,0.1565,0.1603,0.163,0.1702,0.1733,0.1772,0.1834,0.1858,0.1916,0.1974,0.2027,0.2061,0.2114,0.2162,0.2181,0.2178,0.2174,0.2171,0.2174,0.2202,0.2201,0.221,0.221,0.221,0,0,0.1418,0.1478,0.1503,0.1592,0.164,0.1687,0.1722,0.1769,0.1805,0.1866,0.1922,0.1966,0.2036,0.2087,0.2113,0.2124,0.2176,0.2172,0.2169,0.2173,0.2202,0.2201,0.22,0.221,0.221,0.221,0,0,0.1412,0.1463,0.15,0.1547,0.162,0.1667,0.1676,0.1758,0.1789,0.1847,0.1894,0.1936,0.2027,0.2074,0.211,0.2122,0.2155,0.2137,0.2121,0.2147,0.2146,0.2146,0.215,0.2151,0.2139,0.2139,0.2139,0,0.1383,0.1455,0.1515,0.156,0.1598,0.1654,0.1692,0.1735,0.1822,0.1846,0.1857,0.197,0.2021,0.2085,0.2088,0.2115,0.2127,0.2128,0.2142,0.2142,0.2143,0.2147,0.2149,0.2137,0.2137,0.2137,0.2137,0,0.1416,0.1465,0.1486,0.1567,0.1607,0.1649,0.1714,0.1748,0.1783,0.1829,0.1886,0.1949,0.2016,0.2034,0.2069,0.2103,0.2107,0.2128,0.2147,0.2138,0.2144,0.2146,0.2133,0.2134,0.2135,0.2135,0,0,0.1375,0.1488,0.1495,0.1532,0.1616,0.1655,0.1699,0.1764,0.1791,0.1848,0.1886,0.1961,0.1981,0.2022,0.2063,0.2086,0.209,0.2105,0.2108,0.21,0.2131,0.2114,0.2115,0.2113,0.2113,0.2114,0.2125,0,0.1381,0.1462,0.1516,0.1576,0.1622,0.1676,0.1714,0.1769,0.1813,0.1858,0.1907,0.1959,0.1982,0.2006,0.2032,0.2084,0.2098,0.2084,0.2149,0.2151,0.213,0.2118,0.2101,0.2109,0.2128,0.2128,0.2128,0,0.1399,0.1454,0.1518,0.1596,0.1618,0.1651,0.1715,0.1757,0.1821,0.1851,0.1896,0.1938,0.1986,0.1999,0.2067,0.2056,0.2086,0.2116,0.2117,0.2126,0.2139,0.2126,0.2113,0.2113,0.2132,0.2132,0.2132,0,0.1362,0.1453,0.1503,0.1533,0.1626,0.1647,0.1687,0.1751,0.1786,0.1842,0.1866,0.1926,0.196,0.2006,0.2062,0.2067,0.2124,0.2142,0.215,0.2149,0.216,0.2159,0.2151,0.2179,0.2179,0.2179,0.2179,0,0.1364,0.14,0.1487,0.1518,0.156,0.1623,0.1663,0.1708,0.1764,0.1804,0.1854,0.1891,0.1963,0.2009,0.2053,0.2102,0.2117,0.2143,0.2154,0.2138,0.2135,0.2159,0.216,0.2179,0.2179,0.2179,0.2179,0,0.133,0.1389,0.1447,0.153,0.1552,0.1579,0.165,0.1682,0.1728,0.1778,0.1794,0.1866,0.1922,0.1983,0.206,0.209,0.2136,0.2153,0.2114,0.2121,0.2126,0.2124,0.2133,0.2137,0.2162,0.2162,0.2161,0,0.1327,0.1356,0.1442,0.1472,0.151,0.1559,0.1595,0.1657,0.1693,0.1768,0.179,0.185,0.1901,0.1987,0.2047,0.2106,0.2124,0.2123,0.2133,0.2116,0.2124,0.2122,0.2125,0.212,0.2119,0.2119,0.2119,0,0.1315,0.1343,0.1393,0.1453,0.1495,0.1546,0.1599,0.1621,0.1693,0.1731,0.1788,0.1828,0.1906,0.1964,0.203,0.2071,0.2107,0.2115,0.212,0.2104,0.2081,0.2093,0.2106,0.2114,0.2115,0.2115,0.2115,0.2116,0.1297,0.1325,0.139,0.1444,0.149,0.1538,0.1571,0.1622,0.1671,0.1739,0.1773,0.183,0.1893,0.1985,0.2024,0.207,0.2081,0.2089,0.2091,0.2091,0.2087,0.2073,0.2082,0.2083,0.2083,0.2083,0.2083,0,0.1287,0.1331,0.138,0.1452,0.1495,0.1524,0.1584,0.1617,0.1667,0.1723,0.1771,0.1837,0.1894,0.1958,0.2019,0.2043,0.2061,0.2057,0.2056,0.2065,0.2074,0.2063,0.2041,0.2041,0.2041,0.2041,0.2041,0.2041,0.1287,0.1337,0.1372,0.1445,0.1489,0.1545,0.1577,0.1621,0.1666,0.1737,0.1784,0.1825,0.1884,0.1949,0.2003,0.202,0.204,0.2031,0.2053,0.2061,0.2064,0.2067,0.2058,0.2035,0.2035,0.2041,0.2041,0.2041]},{"header":{"parameterUnit":"m.s-1","parameterCategory":1,"la1":30.2991,"la2":30.254,"lo1":-89.0895,"lo2":-89.0444,"dy":0.0017,"dx":0.0017,"nx":28,"ny":28,"refTime":"2025-07-19T21:00:00:Z","depth":0,"parameterNumber":3,"parameterNumberName":"V-component_of_WINDS"},"data":[0,0,0,0,0,0,0,0,0,0,0,0,0,0,0,0,0,0,0,0,0,0,0,0,0,0,0,0,0,0,0,0,0,0,0,0,0,0,0,0,0,0,0,0,0,0,0,0,0,0,0,0,0,0,0,0,0,0,4.5627,4.5627,0,4.5614,4.5614,4.5614,4.556,4.5559,4.5558,4.5557,4.5544,4.5544,4.5545,0,0,0,0,0,0,0,0,0,0,0,0,0,4.5607,4.5608,4.5627,4.5627,4.5627,4.5614,4.5614,4.5613,4.5561,4.5559,4.5558,4.5556,4.5543,4.5544,4.5545,0,0,0,0,0,0,0,0,0,0,0,0,0,4.5607,4.5608,4.5627,4.5599,4.5596,4.5614,4.5614,4.5613,4.5561,4.5559,4.5557,4.5555,4.5543,4.5544,4.5545,4.559,0,0,4.5549,4.555,0,0,0,0,0,0,0,0,4.5607,4.5608,4.5603,4.5601,4.5598,4.5587,4.5602,4.5606,4.5561,4.5574,4.5557,4.5555,4.556,4.5559,4.5561,4.5589,4.5588,4.5549,4.555,4.555,4.5551,0,0,0,0,0,0,0,4.5607,4.5608,4.5622,4.5603,4.56,4.5587,4.5585,4.5602,4.5577,4.5573,4.5569,4.5568,4.5558,4.556,4.556,4.5588,4.5549,4.555,4.5551,4.5551,4.5654,4.5655,0,0,0,0,0,0,4.5611,4.5609,4.5622,4.5621,4.5598,4.5589,4.5586,4.5592,4.5577,4.5573,4.557,4.5566,4.5559,4.5559,4.5559,4.5611,4.555,4.5551,4.5552,4.5652,4.5654,4.5656,0,0,0,0,0,0,4.5611,4.5613,4.5623,4.5614,4.5614,4.5591,4.5598,4.5593,4.5595,4.5575,4.557,4.5576,4.5557,4.5558,4.5583,4.561,4.5552,4.5553,4.5649,4.5652,4.5655,4.5715,0,0,0,0,0,0,4.5611,4.5613,4.5629,4.5615,4.5615,4.5646,4.56,4.5594,4.5597,4.5592,4.558,4.5576,4.5556,4.5581,4.5584,4.5611,4.5554,4.5647,4.5651,4.5654,4.571,4.5719,4.5727,0,0,0,0,0,4.561,4.5647,4.5631,4.5632,4.5635,4.5648,4.5648,4.5624,4.5599,4.5616,4.5603,4.5576,4.5607,4.5584,4.5587,4.5614,4.5645,4.5649,4.5654,4.5706,4.5717,4.5727,0,0,0,0,0,0,4.5665,4.5644,4.5626,4.5659,4.5656,4.5639,4.5659,4.5636,4.564,4.5635,4.5605,4.5603,4.5632,4.5626,4.5601,4.5657,4.5621,4.5627,4.566,4.5671,4.5679,4.568,4.5555,0,0,0,0,0,4.5681,4.5693,4.5674,4.5705,4.5704,4.5682,4.5687,4.5669,4.5664,4.5662,4.5651,4.5648,4.5657,4.5663,4.567,4.5709,4.5706,4.5729,4.5737,4.5745,4.575,4.5771,4.5781,4.5671,4.5671,4.5671,0,0,4.5713,4.5704,4.5713,4.5715,4.5711,4.5725,4.5681,4.5697,4.5707,4.5665,4.5688,4.568,4.5674,4.5707,4.5721,4.5702,4.5779,4.575,4.5756,4.5757,4.5776,4.5787,4.5796,4.5674,4.5673,4.5673,0,0,4.578,4.5774,4.5799,4.5796,4.579,4.5775,4.5781,4.5768,4.5761,4.5784,4.5753,4.5764,4.578,4.5778,4.5779,4.5846,4.5822,4.585,4.5894,4.5915,4.5923,4.5931,4.5956,4.5965,4.5854,4.5855,4.5855,0,4.5822,4.5841,4.5815,4.5834,4.5836,4.5799,4.5825,4.5822,4.5819,4.5822,4.5801,4.5821,4.5814,4.5846,4.5863,4.5864,4.5871,4.5851,4.5924,4.5932,4.5938,4.5962,4.5971,4.5858,4.5858,4.5857,4.5857,0,4.5893,4.5907,4.5929,4.5927,4.5931,4.5954,4.5931,4.5939,4.5921,4.5909,4.5933,4.5924,4.5929,4.5935,4.5918,4.5965,4.5954,4.593,4.5893,4.5953,4.5974,4.5983,4.5863,4.5862,4.5861,4.586,0,0,4.5994,4.5978,4.5986,4.5985,4.5976,4.5987,4.6008,4.6013,4.6021,4.602,4.6037,4.6052,4.6029,4.603,4.6012,4.603,4.6086,4.6003,4.6003,4.602,4.6139,4.6158,4.6169,4.607,4.6071,4.6072,4.6139,0,4.6058,4.6093,4.6071,4.6109,4.6122,4.6088,4.6106,4.6103,4.6092,4.6102,4.609,4.6101,4.607,4.6071,4.6087,4.6075,4.6109,4.607,4.6086,4.6087,4.6089,4.618,4.62,4.6263,4.6148,4.6149,4.615,0,4.6138,4.6141,4.6181,4.6171,4.6175,4.6192,4.6196,4.6206,4.6202,4.6193,4.6195,4.6172,4.6192,4.6157,4.6185,4.6159,4.6164,4.6159,4.6161,4.6162,4.6122,4.6184,4.6283,4.6293,4.6163,4.6162,4.6161,0,4.6208,4.6223,4.6249,4.6249,4.6237,4.625,4.6246,4.624,4.6245,4.6248,4.6251,4.6256,4.626,4.6265,4.6245,4.622,4.6276,4.6238,4.6269,4.627,4.6283,4.6282,4.6385,4.6285,4.6285,4.6285,4.6285,0,4.6283,4.6309,4.628,4.6297,4.6325,4.6299,4.6328,4.632,4.6316,4.633,4.63,4.6314,4.6287,4.6298,4.6282,4.6309,4.631,4.6304,4.63,4.6307,4.6308,4.631,4.6306,4.6288,4.6287,4.6287,4.6286,0,4.6367,4.6348,4.6375,4.6362,4.6359,4.6381,4.637,4.6384,4.6372,4.6391,4.6393,4.6374,4.6386,4.6367,4.6376,4.6366,4.6403,4.6391,4.6404,4.6401,4.6434,4.6432,4.6542,4.6556,4.6447,4.6448,4.6449,0,4.6416,4.6435,4.6425,4.6432,4.643,4.6442,4.6447,4.6423,4.643,4.6427,4.6443,4.6452,4.6459,4.648,4.6467,4.6474,4.6463,4.6502,4.6464,4.6472,4.6465,4.6464,4.6467,4.6509,4.6511,4.6512,4.6513,0,4.6505,4.6495,4.6504,4.651,4.6517,4.6521,4.6522,4.653,4.6504,4.6513,4.6526,4.6531,4.6541,4.6551,4.6556,4.6552,4.6529,4.6525,4.6532,4.654,4.6548,4.6545,4.6426,4.6522,4.6521,4.6521,4.652,4.652,4.6573,4.6589,4.6585,4.6596,4.6594,4.6597,4.661,4.66,4.661,4.6616,4.6601,4.6618,4.6614,4.6618,4.6616,4.6629,4.6612,4.6623,4.6626,4.6629,4.6635,4.6545,4.663,4.6629,4.6629,4.6629,4.6628,0,4.6662,4.6658,4.6668,4.6671,4.668,4.6658,4.6658,4.6667,4.6682,4.668,4.6688,4.6703,4.6713,4.6701,4.6709,4.6721,4.6711,4.6724,4.6724,4.6723,4.6649,4.6642,4.6733,4.6733,4.6733,4.6733,4.6733,4.6733,4.6709,4.6736,4.6726,4.6752,4.6747,4.6763,4.6765,4.6767,4.6766,4.6784,4.6793,4.6785,4.678,4.6787,4.6796,4.6792,4.6797,4.6814,4.6807,4.6738,4.6728,4.6718,4.6712,4.6816,4.6816,4.688,4.6881,4.6881]}]]